Location: Wells
(51.2093°N, 2.6446°W)
Time: 10:26:50
(UTC+01:00)

CUTE-I - Pass Details

Date: 21 March 2026
Orbit: 804 x 818 km, 98.7° (Epoch: 20 April)

Event Time Altitude Azimuth Distance (km) Brightness Sun altitude
Rises 19:01:35 0° 212° (SSW) 3,314 ? -6.5°
Reaches altitude 10° 19:04:46 10° 233° (SW) 2,387 ? -7.0°
Maximum altitude 19:08:07 17° 272° (W) 1,951 ? -7.5°
Drops below altitude 10° 19:11:29 10° 312° (NW) 2,395 ? -8.0°
Sets 19:14:42 0° 333° (NNW) 3,331 ? -8.5°
